Flag for United Kingdom Weather past 2 weeks in Rotherham, England, United Kingdom

Now
48 °F

Cool.


Feels Like: 45 °F
Forecast: 43 / 56 °F
Wind: 6 mph from Southwest

Location: Nottingham Weather Centre

Current Time: Oct 24, 2014 at 10:04:09 PM

Latest Report: Oct 24, 2014 at 9:00 PM


Visibility: 11 mi

Pressure: 29.92 "Hg

Humidity: 94%

Dew point: 46 °F

Location of RotherhamLocation

Historic Weather in Rotherham — Graph

°F

Rotherham temperature yesterday

Maximum temperature yesterday: 58 °F (at 3:00 PM)
Minimum temperature yesterday: 50 °F (at 2:00 AM)
Average temperature yesterday: 54 °F

Past Weeks' High & Low Weather Summary

 TemperatureHumidityPressure
High65 °F (Oct 18, 1:00 PM)99% (Oct 11, 9:00 AM)30.23 "Hg (Oct 11, 9:00 AM)
Low39 °F (Oct 12, 7:00 AM)54% (Oct 19, 2:00 PM)29.35 "Hg (Oct 21, 7:00 AM)
Average53 °F88%29.79 "Hg
* Reported Oct 9 8:00 PM — Oct 24 8:00 PM, Rotherham, Weather by CustomWeather, © 2014

Note: Actual official high and low records may vary slightly from our data, if they occured in-between our weather recording intervals... More about our weather records

Advertising

Rotherham weather history for previous 24 hours

 ConditionsComfort  
Time TempWeatherWind HumidityBarometerVisibility
8:00 PM
Oct 24
49 °FCool.5 mph91%29.91 "Hg15 mi
7:00 PM52 °FCool.5 mph84%29.89 "Hg19 mi
6:00 PM53 °FCool.8 mph91%29.88 "Hg2 mi
5:00 PM55 °FLots of rain. Cloudy.7 mph93%29.86 "Hg1 mi
4:00 PM58 °FCool.5 mph87%29.85 "Hg14 mi
3:00 PM58 °FCool.5 mph90%29.87 "Hg17 mi
2:00 PM58 °FCool.5 mph89%29.88 "Hg19 mi
1:00 PM57 °FLight mixture of precip. Cloudy.7 mph91%29.90 "Hg1 mi
12:00 PM57 °FCool.7 mph91%29.90 "Hg12 mi
11:00 AM58 °FCool.8 mph88%29.91 "Hg14 mi
10:00 AM56 °FCool.7 mph91%29.91 "Hg14 mi
9:00 AM55 °FCool.7 mph92%29.91 "Hg14 mi
8:00 AM55 °FCool.7 mph96%29.90 "Hg10 mi
7:00 AM55 °FFog.7 mph97%29.90 "Hg6 mi
6:00 AM54 °FCool.6 mph98%29.89 "Hg7 mi
5:00 AM55 °FCool.7 mph97%29.90 "Hg8 mi
4:00 AM55 °FCool.8 mph95%29.90 "Hg14 mi
3:00 AM54 °FCool.6 mph97%29.92 "Hg7 mi
2:00 AM54 °FFog.7 mph97%29.92 "Hg6 mi
1:00 AM56 °FFog.8 mph95%29.93 "Hg3 mi
12:00 AM57 °FCool.9 mph90%29.93 "Hg9 mi
11:00 PM
Oct 23
57 °FCool.9 mph89%29.93 "Hg11 mi
10:00 PM57 °FCool.10 mph87%29.93 "Hg13 mi
Weather by CustomWeather, © 2014

See weather overviewHow to use our weather pages